2023/10/10 00:00:00, 0.3,15.9
2023/10/10 00:10:00, 0.3,16.0
2023/10/10 00:20:00, 0.3,16.0
2023/10/10 00:30:00, 0.3,15.9
2023/10/10 00:40:00, 0.4,15.8
2023/10/10 00:50:00, 0.7,15.9
2023/10/10 01:00:00, 0.6,16.0
2023/10/10 01:10:00, 0.5,15.9
2023/10/10 01:20:00, 0.6,15.5
2023/10/10 01:30:00, 0.7,15.8
2023/10/10 01:40:00, 0.6,16.0
2023/10/10 01:50:00, 0.6,15.7
2023/10/10 02:00:00, 0.7,16.0
2023/10/10 02:10:00, 0.6,15.8
2023/10/10 02:20:00, 0.7,15.5
2023/10/10 02:30:00, 0.5,15.4
2023/10/10 02:40:00, 0.6,15.7
2023/10/10 02:50:00, 0.7,15.4
2023/10/10 03:00:00, 0.6,15.4
2023/10/10 03:10:00, 0.7,15.5
2023/10/10 03:20:00, 0.7,15.6
2023/10/10 03:30:00, 0.8,15.4
2023/10/10 03:40:00, 0.7,15.6
2023/10/10 03:50:00, 0.8,15.5
2023/10/10 04:00:00, 0.7,15.7
2023/10/10 04:10:00, 0.8,15.8
2023/10/10 04:20:00, 0.8,15.8
2023/10/10 04:30:00, 0.8,15.8
2023/10/10 04:40:00, 0.8,16.0
2023/10/10 04:50:00, 0.8,15.4
2023/10/10 05:00:00, 0.6,15.7
2023/10/10 05:10:00, 0.8,15.6
2023/10/10 05:20:00, 0.8,15.4
2023/10/10 05:30:00, 0.7,15.4
2023/10/10 05:40:00, 0.9,15.3
2023/10/10 05:50:00, 0.9,15.5
2023/10/10 06:00:00, 0.8,14.9
2023/10/10 06:10:00, 0.8,15.0
2023/10/10 06:20:00, 0.8,15.0
2023/10/10 06:30:00, 0.7,15.3
2023/10/10 06:40:00, 0.7,15.3
2023/10/10 06:50:00, 0.6,15.3
2023/10/10 07:00:00, 0.5,15.4
2023/10/10 07:10:00, 0.5,15.8
2023/10/10 07:20:00, 0.7,15.7
2023/10/10 07:30:00, 0.6,15.7
2023/10/10 07:40:00, 0.5,15.8
2023/10/10 07:50:00, 0.6,15.9
2023/10/10 08:00:00, 0.7,15.7
2023/10/10 08:10:00, 0.7,15.8
2023/10/10 08:20:00, 0.4,16.1
2023/10/10 08:30:00, 0.5,16.4
2023/10/10 08:40:00, 0.7,16.4
2023/10/10 08:50:00, 0.7,15.9
2023/10/10 09:00:00, 0.6,16.1
2023/10/10 09:10:00, 0.5,15.9
2023/10/10 09:20:00, 0.7,15.9
2023/10/10 09:30:00, 0.6,15.4
2023/10/10 09:40:00, 0.4,15.9
2023/10/10 09:50:00, 0.5,16.1
2023/10/10 10:00:00, 0.7,16.1
2023/10/10 10:10:00, 0.7,16.0
2023/10/10 10:20:00, 0.7,15.8
2023/10/10 10:30:00, 0.5,16.0
2023/10/10 10:40:00, 0.6,16.1
2023/10/10 10:50:00, 0.6,16.1
2023/10/10 11:00:00, 0.5,17.5
2023/10/10 11:10:00,28.1,17.8
2023/10/10 11:20:00, 0.5,18.1
2023/10/10 11:30:00, 0.8,18.1
2023/10/10 11:40:00, 0.2,19.6
2023/10/10 11:50:00, 0.1,20.1
2023/10/10 12:00:00, 0.0,22.3
2023/10/10 12:10:00, 0.0,22.2
2023/10/10 12:20:00, 0.0,22.0
2023/10/10 12:30:00, 0.1,20.3
2023/10/10 12:40:00, 0.1,21.3
2023/10/10 12:50:00, 0.1,21.5
2023/10/10 13:00:00, 0.1,20.2
2023/10/10 13:10:00, 0.0,22.0
2023/10/10 13:20:00, 0.0,20.4
2023/10/10 13:30:00, 0.0,21.7
2023/10/10 13:40:00, 0.1,20.9
2023/10/10 13:50:00, 0.2,18.4
2023/10/10 14:00:00, 0.2,17.8
2023/10/10 14:10:00, 0.2,17.3
2023/10/10 14:20:00, 0.1,18.5
2023/10/10 14:30:00, 0.1,17.7
2023/10/10 14:40:00, 0.1,18.1
2023/10/10 14:50:00, 0.1,18.1
2023/10/10 15:00:00, 0.2,18.3
2023/10/10 15:10:00, 0.2,18.8
2023/10/10 15:20:00, 0.2,17.9
2023/10/10 15:30:00, 0.4,16.1
2023/10/10 15:40:00, 0.4,15.8
2023/10/10 15:50:00, 0.4,15.7
2023/10/10 16:00:00, 0.3,15.9
2023/10/10 16:10:00, 0.3,15.8
2023/10/10 16:20:00, 0.2,16.1
2023/10/10 16:30:00, 0.2,15.6
2023/10/10 16:40:00, 0.2,15.3
2023/10/10 16:50:00, 0.3,15.1
2023/10/10 17:00:00, 0.2,15.2
2023/10/10 17:10:00, 0.2,15.0
2023/10/10 17:20:00, 0.3,14.0
2023/10/10 17:30:00, 0.3,14.4
2023/10/10 17:40:00, 0.3,14.3
2023/10/10 17:50:00, 0.3,14.3
2023/10/10 18:00:00, 0.3,14.0
2023/10/10 18:10:00, 0.3,14.0
2023/10/10 18:20:00, 0.4,14.0
2023/10/10 18:30:00, 0.3,13.8
2023/10/10 18:40:00, 0.3,14.0
2023/10/10 18:50:00, 0.4,14.1
2023/10/10 19:00:00, 0.4,14.0
2023/10/10 19:10:00, 0.5,14.2
2023/10/10 19:20:00, 0.5,14.4
2023/10/10 19:30:00, 0.5,14.2
2023/10/10 19:40:00, 0.6,14.1
2023/10/10 19:50:00, 0.6,14.2
2023/10/10 20:00:00, 0.5,14.1
2023/10/10 20:10:00, 0.5,14.2
2023/10/10 20:20:00, 0.5,14.2
2023/10/10 20:30:00, 0.5,14.0
2023/10/10 20:40:00, 0.6,14.2
2023/10/10 20:50:00, 0.5,13.9
2023/10/10 21:00:00, 0.4,13.9
2023/10/10 21:10:00, 0.4,13.8
2023/10/10 21:20:00, 0.2,13.7
2023/10/10 21:30:00, 0.3,13.7
2023/10/10 21:40:00, 0.3,13.6
2023/10/10 21:50:00, 0.3,13.5
2023/10/10 22:00:00, 0.3,13.5
2023/10/10 22:10:00, 0.3,13.4
2023/10/10 22:20:00, 0.3,13.6
2023/10/10 22:30:00, 0.3,13.2
2023/10/10 22:40:00, 0.4,13.3
2023/10/10 22:50:00, 0.3,13.2
2023/10/10 23:00:00, 0.2,13.1
2023/10/10 23:10:00, 0.2,12.9
2023/10/10 23:20:00, 0.2,12.7
2023/10/10 23:30:00, 0.3,12.8
2023/10/10 23:40:00, 0.3,12.7
2023/10/10 23:50:00, 0.3,12.6
